[[{"header":{"parameterUnit":"m.s-1","parameterCategory":1,"la1":30.2991,"la2":30.254,"lo1":-89.0895,"lo2":-89.0444,"dy":0.0017,"dx":0.0017,"nx":28,"ny":28,"refTime":"2026-01-30T09:00:00:Z","depth":0,"parameterNumber":2,"parameterNumberName":"U-component_of_WINDS"},"data":[0,0,0,0,0,0,0,0,0,0,0,0,0,0,0,0,0,0,0,0,0,0,0,0,0,0,0,0,0,0,0,0,0,0,0,0,0,0,0,0,0,0,0,0,0,0,0,0,0,0,0,0,0,0,0,0,0,0,1.8974,1.8973,0,1.8884,1.8883,1.8882,1.8872,1.8873,1.8873,1.8874,1.8779,1.8775,1.8772,0,0,0,0,0,0,0,0,0,0,0,0,0,1.9135,1.9132,1.8974,1.8973,1.8972,1.8884,1.8883,1.8881,1.8871,1.8873,1.8874,1.8875,1.878,1.8776,1.8772,0,0,0,0,0,0,0,0,0,0,0,0,0,1.9057,1.9131,1.8974,1.8957,1.8954,1.8884,1.8883,1.8881,1.8871,1.8873,1.8874,1.8875,1.8781,1.8776,1.8771,1.8712,0,0,1.8755,1.8753,0,0,0,0,0,0,0,0,1.9061,1.9051,1.896,1.8958,1.8955,1.889,1.8904,1.8824,1.8871,1.8903,1.8874,1.8876,1.8814,1.8807,1.8787,1.8707,1.8703,1.8755,1.8752,1.875,1.8748,0,0,0,0,0,0,0,1.9067,1.9055,1.8938,1.8959,1.8956,1.8952,1.8942,1.8889,1.8852,1.89,1.8899,1.8889,1.8813,1.8791,1.8784,1.8702,1.8755,1.875,1.8747,1.8745,1.8568,1.8566,0,0,0,0,0,0,1.9076,1.9059,1.8941,1.8936,1.9013,1.8948,1.8937,1.891,1.8852,1.8845,1.8887,1.8888,1.88,1.879,1.8781,1.8707,1.875,1.8745,1.8742,1.8569,1.8567,1.8565,0,0,0,0,0,0,1.9079,1.9065,1.8945,1.8997,1.8982,1.8944,1.8913,1.8907,1.8885,1.8843,1.8836,1.8872,1.88,1.8788,1.8729,1.8703,1.8743,1.8738,1.8571,1.8569,1.8566,1.8559,0,0,0,0,0,0,1.9084,1.9067,1.9045,1.8997,1.8979,1.8896,1.8911,1.8904,1.8877,1.8877,1.8827,1.882,1.88,1.8737,1.8724,1.8697,1.8734,1.8573,1.857,1.8567,1.8561,1.8556,1.8552,0,0,0,0,0,1.909,1.9046,1.9044,1.903,1.8951,1.8894,1.8884,1.8863,1.8875,1.8852,1.8824,1.8821,1.8708,1.8731,1.8716,1.8687,1.8575,1.8571,1.8567,1.8563,1.8557,1.8552,0,0,0,0,0,0,1.9091,1.9039,1.9036,1.8976,1.894,1.8893,1.8863,1.8858,1.8816,1.8818,1.8794,1.8782,1.8724,1.87,1.8725,1.8626,1.8643,1.8636,1.8644,1.8638,1.8634,1.8641,1.873,0,0,0,0,0,1.9085,1.9044,1.9001,1.8951,1.8933,1.8901,1.8876,1.8863,1.8824,1.8808,1.8776,1.8738,1.8693,1.8665,1.8621,1.8558,1.8546,1.8531,1.8526,1.8523,1.8517,1.848,1.8473,1.8553,1.8553,1.8553,0,0,1.907,1.9037,1.9013,1.8951,1.8921,1.8878,1.8888,1.8843,1.8811,1.8801,1.8743,1.8719,1.8673,1.8612,1.8583,1.859,1.8492,1.8518,1.8516,1.8512,1.8476,1.8468,1.8461,1.8551,1.8551,1.8552,0,0,1.9023,1.8994,1.8949,1.8919,1.8874,1.8853,1.8842,1.8796,1.8779,1.8721,1.8713,1.8673,1.8597,1.8565,1.8539,1.8478,1.8473,1.8465,1.8441,1.8406,1.8399,1.8393,1.8371,1.8363,1.8459,1.8459,1.8459,0,1.901,1.8947,1.8927,1.8881,1.8854,1.8844,1.8797,1.8769,1.8712,1.8692,1.8701,1.8605,1.8574,1.8504,1.8489,1.8469,1.8454,1.847,1.8402,1.8396,1.839,1.8368,1.836,1.8458,1.8458,1.8458,1.8458,0,1.8933,1.8889,1.8858,1.8804,1.8773,1.8727,1.8699,1.8669,1.8659,1.8637,1.8577,1.8539,1.8488,1.847,1.8459,1.8398,1.8403,1.8407,1.8423,1.8382,1.8361,1.8352,1.8457,1.8457,1.8458,1.8458,0,0,1.8884,1.8819,1.8808,1.8783,1.8732,1.8697,1.865,1.8601,1.8575,1.8536,1.8495,1.8431,1.8434,1.8404,1.839,1.8359,1.8311,1.8366,1.8365,1.8357,1.824,1.8237,1.8228,1.8308,1.8306,1.8305,1.8243,0,1.883,1.8748,1.8728,1.8657,1.8615,1.8604,1.8563,1.8527,1.8504,1.8465,1.8439,1.8394,1.8402,1.8384,1.8352,1.8324,1.8287,1.8328,1.8269,1.8267,1.828,1.8217,1.8213,1.8157,1.8235,1.8234,1.8233,0,1.8756,1.8716,1.8641,1.8595,1.8576,1.854,1.8493,1.8455,1.8413,1.8399,1.8365,1.8353,1.8302,1.8321,1.825,1.8278,1.8253,1.8235,1.8232,1.8225,1.8247,1.8208,1.8139,1.813,1.8219,1.822,1.8221,0,1.8727,1.8654,1.8599,1.8578,1.8523,1.8498,1.8473,1.8433,1.8404,1.8362,1.8342,1.8295,1.8268,1.8231,1.8206,1.8222,1.8137,1.8153,1.8122,1.8123,1.8105,1.8106,1.803,1.8089,1.8089,1.8089,1.8089,0,1.8669,1.8623,1.8586,1.8552,1.85,1.8477,1.8425,1.8401,1.8364,1.8325,1.8312,1.8275,1.8244,1.8203,1.8183,1.8126,1.8114,1.81,1.8096,1.8101,1.8103,1.8084,1.8087,1.8087,1.8087,1.8088,1.8088,0,1.8628,1.8601,1.8541,1.8493,1.848,1.8444,1.8403,1.8369,1.8346,1.8295,1.8282,1.8245,1.8195,1.8167,1.8104,1.809,1.8027,1.8024,1.8042,1.804,1.801,1.8013,1.7919,1.7905,1.7973,1.7973,1.7972,0,1.8592,1.8557,1.8506,1.8479,1.8454,1.8411,1.8381,1.8356,1.8325,1.8274,1.8246,1.8196,1.8154,1.8074,1.8041,1.7992,1.7988,1.7958,1.798,1.7987,1.7986,1.7989,1.7985,1.7954,1.7954,1.7953,1.7953,0,1.8532,1.852,1.8478,1.8432,1.8397,1.8359,1.8321,1.8299,1.8267,1.8233,1.8182,1.815,1.8086,1.8035,1.7983,1.7957,1.7949,1.7946,1.7936,1.7942,1.7953,1.7946,1.8031,1.7948,1.7949,1.7949,1.7949,1.795,1.8492,1.846,1.8418,1.8372,1.8341,1.8305,1.8271,1.8243,1.8201,1.8147,1.8134,1.808,1.8038,1.7968,1.794,1.7896,1.7901,1.7887,1.7883,1.788,1.7879,1.796,1.7887,1.7887,1.7887,1.7887,1.7887,0,1.843,1.8403,1.8361,1.8308,1.8271,1.8268,1.8225,1.8194,1.8147,1.8109,1.8068,1.8008,1.7959,1.7921,1.7871,1.7843,1.7838,1.783,1.7832,1.7826,1.7878,1.7891,1.7835,1.7835,1.7835,1.7835,1.7835,1.7835,1.8394,1.8339,1.8322,1.8251,1.8223,1.8171,1.8147,1.8114,1.8082,1.8017,1.7976,1.7952,1.7913,1.7859,1.7813,1.7803,1.7785,1.7778,1.7767,1.7816,1.7822,1.7827,1.784,1.7774,1.7774,1.7719,1.7718,1.7718]},{"header":{"parameterUnit":"m.s-1","parameterCategory":1,"la1":30.2991,"la2":30.254,"lo1":-89.0895,"lo2":-89.0444,"dy":0.0017,"dx":0.0017,"nx":28,"ny":28,"refTime":"2026-01-30T09:00:00:Z","depth":0,"parameterNumber":3,"parameterNumberName":"V-component_of_WINDS"},"data":[0,0,0,0,0,0,0,0,0,0,0,0,0,0,0,0,0,0,0,0,0,0,0,0,0,0,0,0,0,0,0,0,0,0,0,0,0,0,0,0,0,0,0,0,0,0,0,0,0,0,0,0,0,0,0,0,0,0,-1.9443,-1.9442,0,-1.9424,-1.9424,-1.9424,-1.9411,-1.9411,-1.9411,-1.9411,-1.9387,-1.9386,-1.9386,0,0,0,0,0,0,0,0,0,0,0,0,0,-1.9465,-1.9464,-1.9443,-1.9442,-1.9442,-1.9424,-1.9424,-1.9424,-1.9411,-1.9411,-1.9411,-1.9411,-1.9387,-1.9386,-1.9386,0,0,0,0,0,0,0,0,0,0,0,0,0,-1.9451,-1.9464,-1.9443,-1.9434,-1.9433,-1.9424,-1.9424,-1.9424,-1.9411,-1.9411,-1.9411,-1.9411,-1.9387,-1.9386,-1.9385,-1.9382,0,0,-1.9383,-1.9382,0,0,0,0,0,0,0,0,-1.9452,-1.9451,-1.9436,-1.9435,-1.9434,-1.942,-1.9423,-1.9409,-1.9411,-1.9419,-1.9411,-1.9411,-1.9398,-1.9396,-1.9392,-1.9381,-1.938,-1.9383,-1.9382,-1.9382,-1.9382,0,0,0,0,0,0,0,-1.9453,-1.9451,-1.9435,-1.9435,-1.9434,-1.943,-1.9428,-1.942,-1.9409,-1.9419,-1.9418,-1.9416,-1.9397,-1.9393,-1.9392,-1.938,-1.9383,-1.9382,-1.9381,-1.9381,-1.9368,-1.9368,0,0,0,0,0,0,-1.9456,-1.9452,-1.9436,-1.9435,-1.9443,-1.943,-1.9428,-1.9424,-1.9409,-1.9407,-1.9416,-1.9415,-1.9395,-1.9393,-1.9391,-1.9388,-1.9382,-1.9381,-1.9381,-1.9368,-1.9368,-1.9368,0,0,0,0,0,0,-1.9456,-1.9455,-1.9436,-1.9443,-1.9441,-1.943,-1.9426,-1.9424,-1.942,-1.9407,-1.9405,-1.9415,-1.9395,-1.9392,-1.9386,-1.9387,-1.9381,-1.938,-1.9367,-1.9368,-1.9368,-1.9382,0,0,0,0,0,0,-1.9457,-1.9455,-1.9454,-1.9443,-1.944,-1.9432,-1.9426,-1.9424,-1.942,-1.9419,-1.9405,-1.9403,-1.9394,-1.9387,-1.9385,-1.9386,-1.9379,-1.9367,-1.9368,-1.9368,-1.9381,-1.9382,-1.9383,0,0,0,0,0,-1.9458,-1.9457,-1.9454,-1.9452,-1.9439,-1.9432,-1.9431,-1.9422,-1.942,-1.9419,-1.9411,-1.9403,-1.9387,-1.9386,-1.9384,-1.9385,-1.9367,-1.9367,-1.9368,-1.938,-1.9382,-1.9383,0,0,0,0,0,0,-1.9465,-1.9455,-1.9452,-1.9447,-1.9441,-1.943,-1.9429,-1.9424,-1.9417,-1.9416,-1.9404,-1.9401,-1.9397,-1.9389,-1.9389,-1.9382,-1.9376,-1.9376,-1.9387,-1.9388,-1.939,-1.9391,-1.9378,0,0,0,0,0,-1.9467,-1.9464,-1.9454,-1.9451,-1.9449,-1.9439,-1.9436,-1.9431,-1.9423,-1.9419,-1.9411,-1.9403,-1.9396,-1.9392,-1.9384,-1.938,-1.9378,-1.9379,-1.9381,-1.9382,-1.9382,-1.9381,-1.9382,-1.9369,-1.9369,-1.9369,0,0,-1.9469,-1.9463,-1.9461,-1.9453,-1.9447,-1.9444,-1.9437,-1.9432,-1.943,-1.9418,-1.9413,-1.9406,-1.9396,-1.9392,-1.9389,-1.9386,-1.9385,-1.9382,-1.9383,-1.9383,-1.9382,-1.9383,-1.9384,-1.9369,-1.9369,-1.9369,0,0,-1.9472,-1.9467,-1.9465,-1.946,-1.9453,-1.9448,-1.9448,-1.9438,-1.9434,-1.9429,-1.9421,-1.9417,-1.9405,-1.9399,-1.9395,-1.9399,-1.9392,-1.9397,-1.9403,-1.9403,-1.9404,-1.9405,-1.9408,-1.9409,-1.9397,-1.9397,-1.9397,0,-1.9475,-1.947,-1.9464,-1.9461,-1.9458,-1.9451,-1.9449,-1.9444,-1.9434,-1.9432,-1.9429,-1.9417,-1.9409,-1.9404,-1.9406,-1.9401,-1.9401,-1.9398,-1.9404,-1.9405,-1.9406,-1.9409,-1.941,-1.9397,-1.9397,-1.9397,-1.9397,0,-1.9476,-1.9473,-1.9472,-1.9466,-1.9463,-1.946,-1.9453,-1.9451,-1.9446,-1.9441,-1.9437,-1.9428,-1.942,-1.9418,-1.9412,-1.9413,-1.9412,-1.9407,-1.9401,-1.9408,-1.9411,-1.9411,-1.9398,-1.9398,-1.9398,-1.9398,0,0,-1.9481,-1.9474,-1.9474,-1.9472,-1.9465,-1.9462,-1.946,-1.9455,-1.9454,-1.9447,-1.9446,-1.9438,-1.9434,-1.9429,-1.9423,-1.9422,-1.9429,-1.9417,-1.9417,-1.9421,-1.9431,-1.9436,-1.9437,-1.9424,-1.9425,-1.9425,-1.9433,0,-1.9483,-1.9481,-1.9476,-1.9475,-1.9473,-1.9467,-1.9466,-1.9461,-1.9457,-1.9454,-1.9448,-1.9443,-1.9438,-1.9435,-1.9435,-1.9428,-1.9431,-1.9427,-1.9423,-1.9423,-1.9427,-1.9438,-1.9442,-1.945,-1.9433,-1.9433,-1.9433,0,-1.9485,-1.9483,-1.9482,-1.9479,-1.9478,-1.9476,-1.9473,-1.947,-1.9465,-1.9462,-1.9458,-1.9453,-1.945,-1.9445,-1.9442,-1.944,-1.9438,-1.9435,-1.9435,-1.9434,-1.9429,-1.9439,-1.9452,-1.9454,-1.9435,-1.9434,-1.9434,0,-1.9491,-1.9487,-1.9488,-1.9486,-1.9481,-1.9481,-1.9478,-1.9473,-1.9472,-1.9468,-1.9467,-1.9462,-1.946,-1.9456,-1.9449,-1.9446,-1.9448,-1.9441,-1.9445,-1.9446,-1.9446,-1.9446,-1.946,-1.9443,-1.9443,-1.9443,-1.9443,0,-1.9495,-1.9495,-1.9491,-1.9491,-1.9491,-1.9486,-1.9486,-1.9483,-1.948,-1.9479,-1.9472,-1.9471,-1.9462,-1.946,-1.9455,-1.9454,-1.9452,-1.945,-1.9449,-1.9451,-1.9452,-1.945,-1.945,-1.9443,-1.9443,-1.9443,-1.9443,0,-1.9501,-1.9498,-1.9498,-1.9495,-1.9494,-1.9495,-1.9491,-1.9491,-1.9487,-1.9487,-1.9486,-1.948,-1.9478,-1.9471,-1.9466,-1.9462,-1.9464,-1.946,-1.9466,-1.9466,-1.9471,-1.9471,-1.9484,-1.9487,-1.9467,-1.9468,-1.9468,0,-1.9504,-1.9504,-1.9502,-1.9503,-1.9501,-1.9501,-1.95,-1.9496,-1.9495,-1.9492,-1.9492,-1.949,-1.9488,-1.9485,-1.9479,-1.9476,-1.9473,-1.9478,-1.9472,-1.9476,-1.9475,-1.9476,-1.9477,-1.948,-1.948,-1.948,-1.948,0,-1.951,-1.9509,-1.9509,-1.951,-1.951,-1.9509,-1.9508,-1.9508,-1.9503,-1.9503,-1.9502,-1.9501,-1.9498,-1.9496,-1.9493,-1.9489,-1.9484,-1.9482,-1.9483,-1.9486,-1.949,-1.949,-1.9471,-1.9482,-1.9482,-1.9482,-1.9482,-1.9481,-1.9515,-1.9517,-1.9516,-1.9517,-1.9517,-1.9517,-1.9518,-1.9516,-1.9516,-1.9514,-1.9511,-1.9512,-1.9509,-1.9504,-1.9502,-1.9501,-1.9498,-1.9499,-1.95,-1.95,-1.9502,-1.949,-1.95,-1.95,-1.95,-1.95,-1.95,0,-1.9522,-1.9523,-1.9524,-1.9524,-1.9525,-1.9523,-1.9522,-1.9523,-1.9524,-1.9523,-1.9523,-1.9523,-1.9522,-1.9518,-1.9516,-1.9517,-1.9515,-1.9517,-1.9517,-1.9517,-1.9504,-1.9504,-1.9519,-1.9519,-1.9519,-1.9519,-1.9519,-1.9519,-1.9526,-1.9529,-1.9529,-1.9532,-1.9532,-1.9534,-1.9535,-1.9535,-1.9534,-1.9536,-1.9536,-1.9534,-1.9532,-1.9531,-1.9531,-1.953,-1.953,-1.9533,-1.9531,-1.9519,-1.9517,-1.9516,-1.9516,-1.9533,-1.9533,-1.9544,-1.9544,-1.9544]}]]